| time (UTC) | temp F | wind direction | speed knots | gust knots | rain 1hr in | rain 24hr in | rain mn in | humidity % | barometer mb |
| 20260506051318 | 60 | 330 | 0.0 | 0.0 | 0.00 | 0.00 | 0.00 | 86 | 1007.4 |
| 20260506050816 | 60 | 325 | 0.0 | 0.0 | 0.00 | 0.00 | 0.00 | 86 | 1007.5 |
| 20260506050313 | 60 | 323 | 0.0 | 0.0 | 0.00 | 0.00 | 0.00 | 86 | 1007.5 |
| 20260506044804 | 59 | 324 | 0.0 | 0.0 | 0.00 | 0.00 | 0.00 | 86 | 1007.4 |
| 20260506044301 | 60 | 326 | 0.0 | 0.0 | 0.00 | 0.00 | 0.00 | 86 | 1007.5 |
| 20260506043758 | 60 | 326 | 0.0 | 1.7 | 0.00 | 0.00 | 0.00 | 86 | 1007.5 |
| 20260506043255 | 60 | 320 | 0.0 | 0.0 | 0.00 | 0.00 | 0.00 | 86 | 1007.5 |
| 20260506042754 | 60 | 323 | 0.0 | 0.0 | 0.00 | 0.00 | 0.00 | 86 | 1007.5 |
| 20260506042253 | 60 | 326 | 0.0 | 1.7 | 0.00 | 0.00 | 0.00 | 85 | 1007.4 |
| 20260506041751 | 60 | 323 | 0.0 | 1.7 | 0.00 | 0.00 | 0.00 | 85 | 1007.5 |
| 20260506041247 | 60 | 320 | 0.9 | 1.7 | 0.00 | 0.00 | 0.00 | 85 | 1007.3 |
| 20260506040745 | 60 | 325 | 0.0 | 0.0 | 0.00 | 0.00 | 0.00 | 85 | 1007.2 |
| 20260506040242 | 60 | 330 | 0.0 | 0.0 | 0.00 | 0.00 | 0.00 | 85 | 1007.3 |
| 20260506035738 | 60 | 332 | 0.0 | 0.0 | 0.00 | 0.00 | 0.00 | 84 | 1007.3 |
| 20260506035235 | 60 | 333 | 0.0 | 0.0 | 0.00 | 0.00 | 0.00 | 84 | 1007.3 |
| 20260506034732 | 60 | 333 | 0.0 | 0.0 | 0.00 | 0.00 | 0.00 | 84 | 1007.4 |
| 20260506034230 | 60 | 333 | 0.0 | 0.0 | 0.00 | 0.00 | 0.00 | 84 | 1007.3 |
| 20260506033727 | 60 | 332 | 0.0 | 0.0 | 0.00 | 0.00 | 0.00 | 83 | 1007.4 |
| 20260506033224 | 61 | 325 | 0.0 | 0.0 | 0.00 | 0.00 | 0.00 | 83 | 1007.4 |
| 20260506032720 | 61 | 327 | 0.0 | 0.0 | 0.00 | 0.00 | 0.00 | 83 | 1007.4 |
| 20260506032217 | 61 | 322 | 0.0 | 1.7 | 0.00 | 0.00 | 0.00 | 84 | 1007.4 |
| 20260506031714 | 61 | 326 | 0.0 | 0.0 | 0.00 | 0.00 | 0.00 | 84 | 1007.4 |
| 20260506031211 | 61 | 324 | 0.0 | 1.7 | 0.00 | 0.00 | 0.00 | 84 | 1007.5 |
| 20260506030710 | 61 | 324 | 0.0 | 0.0 | 0.00 | 0.00 | 0.00 | 84 | 1007.4 |
| 20260506030207 | 61 | 332 | 0.0 | 0.0 | 0.00 | 0.00 | 0.00 | 83 | 1007.4 |
| 20260506025703 | 62 | 325 | 0.0 | 0.0 | 0.00 | 0.00 | 0.00 | 82 | 1007.5 |
| 20260506025159 | 61 | 326 | 0.0 | 0.0 | 0.00 | 0.00 | 0.00 | 82 | 1007.6 |
| 20260506024657 | 61 | 328 | 0.0 | 0.0 | 0.00 | 0.00 | 0.00 | 81 | 1007.5 |
| 20260506024153 | 61 | 325 | 0.0 | 0.0 | 0.00 | 0.00 | 0.00 | 81 | 1007.8 |
| 20260506023649 | 62 | 335 | 0.0 | 0.0 | 0.00 | 0.00 | 0.00 | 79 | 1007.6 |
| 20260506023147 | 62 | 335 | 0.0 | 0.0 | 0.00 | 0.00 | 0.00 | 79 | 1007.6 |
| 20260506022644 | 62 | 335 | 0.0 | 0.0 | 0.00 | 0.00 | 0.00 | 79 | 1007.6 |
| 20260506022141 | 62 | 335 | 0.0 | 0.0 | 0.00 | 0.00 | 0.00 | 79 | 1007.5 |
| 20260506021639 | 63 | 337 | 0.0 | 0.0 | 0.00 | 0.00 | 0.00 | 79 | 1007.4 |
| 20260506021136 | 63 | 337 | 0.0 | 0.0 | 0.00 | 0.00 | 0.00 | 79 | 1007.4 |
| 20260506020633 | 64 | 339 | 0.0 | 0.0 | 0.00 | 0.00 | 0.00 | 78 | 1007.4 |
| 20260506020131 | 64 | 339 | 0.0 | 0.0 | 0.00 | 0.00 | 0.00 | 78 | 1007.7 |
| 20260506015628 | 64 | 317 | 0.0 | 0.0 | 0.00 | 0.00 | 0.00 | 78 | 1007.6 |
| 20260506015125 | 64 | 329 | 0.0 | 0.0 | 0.00 | 0.00 | 0.00 | 76 | 1007.5 |
| 20260506014623 | 64 | 327 | 1.7 | 4.3 | 0.00 | 0.00 | 0.00 | 76 | 1007.5 |
| 20260506014118 | 64 | 334 | 0.0 | 0.0 | 0.00 | 0.00 | 0.00 | 76 | 1007.4 |
| 20260506013617 | 64 | 333 | 0.0 | 0.0 | 0.00 | 0.00 | 0.00 | 75 | 1007.4 |
| 20260506013113 | 64 | 333 | 0.0 | 0.0 | 0.00 | 0.00 | 0.00 | 74 | 1007.3 |
| 20260506012609 | 65 | 335 | 0.0 | 0.0 | 0.00 | 0.00 | 0.00 | 74 | 1007.5 |
| 20260506012106 | 65 | 335 | 0.0 | 0.0 | 0.00 | 0.00 | 0.00 | 72 | 1007.4 |
| 20260506011604 | 66 | 335 | 0.0 | 0.0 | 0.00 | 0.00 | 0.00 | 71 | 1007.3 |
| 20260506011100 | 66 | 335 | 0.0 | 0.0 | 0.00 | 0.00 | 0.00 | 71 | 1007.3 |
| 20260506010559 | 67 | 335 | 0.0 | 0.0 | 0.00 | 0.00 | 0.00 | 70 | 1007.2 |
| 20260506010055 | 67 | 331 | 0.0 | 0.0 | 0.00 | 0.00 | 0.00 | 69 | 1007.1 |
| 20260506005553 | 67 | 336 | 0.0 | 0.0 | 0.00 | 0.00 | 0.00 | 69 | 1007.3 |
| 20260506005048 | 67 | 333 | 0.0 | 0.0 | 0.00 | 0.00 | 0.00 | 68 | 1007.2 |
| 20260506004546 | 68 | 332 | 0.0 | 0.0 | 0.00 | 0.00 | 0.00 | 68 | 1007.0 |
| 20260506004042 | 68 | 330 | 0.0 | 0.0 | 0.00 | 0.00 | 0.00 | 67 | 1007.1 |
| 20260506003539 | 68 | 325 | 0.0 | 0.0 | 0.00 | 0.00 | 0.00 | 67 | 1007.0 |
| 20260506003035 | 69 | 334 | 0.0 | 0.0 | 0.00 | 0.00 | 0.00 | 66 | 1007.0 |
| 20260506002531 | 69 | 337 | 0.0 | 0.0 | 0.00 | 0.00 | 0.00 | 66 | 1006.9 |
| 20260506002027 | 69 | 329 | 0.0 | 0.0 | 0.00 | 0.00 | 0.00 | 65 | 1007.0 |
| 20260506001524 | 70 | 323 | 0.0 | 0.0 | 0.00 | 0.00 | 0.00 | 62 | 1006.8 |
| 20260506001021 | 70 | 323 | 0.0 | 0.0 | 0.00 | 0.00 | 0.00 | 62 | 1006.8 |
| 20260506000519 | 70 | 322 | 0.0 | 0.0 | 0.00 | 0.00 | 0.00 | 63 | 1006.6 |
| 20260506000016 | 71 | 330 | 0.0 | 0.0 | 0.00 | 0.00 | 0.00 | 61 | 1006.6 |
| 20260505235514 | 71 | 324 | 0.0 | 1.7 | 0.00 | 0.00 | 0.00 | 61 | 1006.6 |
| 20260505235010 | 71 | 322 | 0.0 | 1.7 | 0.00 | 0.00 | 0.00 | 61 | 1006.5 |
| 20260505234507 | 72 | 324 | 0.0 | 1.7 | 0.00 | 0.00 | 0.00 | 60 | 1006.6 |
| 20260505234004 | 72 | 252 | 0.9 | 1.7 | 0.00 | 0.00 | 0.00 | 60 | 1006.6 |
| 20260505233501 | 72 | 304 | 1.7 | 4.3 | 0.00 | 0.00 | 0.00 | 59 | 1006.5 |
| 20260505232959 | 73 | 303 | 1.7 | 4.3 | 0.00 | 0.00 | 0.00 | 58 | 1006.6 |
| 20260505232457 | 73 | 317 | 0.9 | 6.1 | 0.00 | 0.00 | 0.00 | 57 | 1006.6 |
| 20260505231954 | 73 | 284 | 2.6 | 4.3 | 0.00 | 0.00 | 0.00 | 56 | 1006.4 |
| 20260505231451 | 74 | 293 | 3.5 | 4.3 | 0.00 | 0.00 | 0.00 | 55 | 1006.5 |
| 20260505230949 | 74 | 321 | 1.7 | 1.7 | 0.00 | 0.00 | 0.00 | 54 | 1006.4 |
| 20260505230446 | 74 | 318 | 3.5 | 4.3 | 0.00 | 0.00 | 0.00 | 54 | 1006.2 |
| 20260505225942 | 75 | 253 | 2.6 | 4.3 | 0.00 | 0.00 | 0.00 | 53 | 1006.2 |
| 20260505225440 | 75 | 307 | 3.5 | 4.3 | 0.00 | 0.00 | 0.00 | 52 | 1006.2 |
| 20260505224936 | 75 | 284 | 5.2 | 6.1 | 0.00 | 0.00 | 0.00 | 52 | 1006.3 |
| 20260505224433 | 75 | 277 | 2.6 | 6.1 | 0.00 | 0.00 | 0.00 | 51 | 1006.1 |
| 20260505223930 | 75 | 306 | 5.2 | 8.7 | 0.00 | 0.00 | 0.00 | 51 | 1006.1 |
| 20260505223427 | 75 | 291 | 2.6 | 4.3 | 0.00 | 0.00 | 0.00 | 51 | 1006.3 |
| 20260505222923 | 76 | 300 | 6.1 | 8.7 | 0.00 | 0.00 | 0.00 | 50 | 1006.4 |
| 20260505222419 | 76 | 316 | 5.2 | 6.1 | 0.00 | 0.00 | 0.00 | 49 | 1006.4 |
| 20260505221915 | 77 | 289 | 5.2 | 8.7 | 0.00 | 0.00 | 0.00 | 47 | 1006.1 |
| 20260505221413 | 77 | 279 | 7.0 | 10.4 | 0.00 | 0.00 | 0.00 | 46 | 1005.9 |
| 20260505220910 | 77 | 318 | 6.1 | 14.8 | 0.00 | 0.00 | 0.00 | 45 | 1006.1 |
| 20260505220407 | 78 | 278 | 13.0 | 16.5 | 0.00 | 0.00 | 0.00 | 43 | 1005.9 |
| 20260505215905 | 79 | 323 | 5.2 | 8.7 | 0.00 | 0.00 | 0.00 | 41 | 1006.0 |
| 20260505215402 | 79 | 309 | 3.5 | 6.1 | 0.00 | 0.00 | 0.00 | 41 | 1005.8 |
| 20260505214900 | 79 | 311 | 3.5 | 6.1 | 0.00 | 0.00 | 0.00 | 40 | 1005.7 |
| 20260505214357 | 79 | 315 | 3.5 | 4.3 | 0.00 | 0.00 | 0.00 | 39 | 1005.6 |
| 20260505213854 | 80 | 295 | 5.2 | 6.1 | 0.00 | 0.00 | 0.00 | 39 | 1005.5 |
| 20260505213352 | 80 | 262 | 5.2 | 6.1 | 0.00 | 0.00 | 0.00 | 40 | 1005.7 |
| 20260505212848 | 80 | 300 | 3.5 | 6.1 | 0.00 | 0.00 | 0.00 | 40 | 1005.5 |
| 20260505212345 | 80 | 297 | 1.7 | 6.1 | 0.00 | 0.00 | 0.00 | 40 | 1005.3 |
| 20260505211841 | 80 | 290 | 5.2 | 6.1 | 0.00 | 0.00 | 0.00 | 40 | 1005.3 |
| 20260505211339 | 80 | 308 | 2.6 | 4.3 | 0.00 | 0.00 | 0.00 | 41 | 1005.2 |
| 20260505210835 | 81 | 266 | 7.0 | 13.0 | 0.00 | 0.00 | 0.00 | 39 | 1005.3 |
| 20260505210332 | 81 | 290 | 6.1 | 10.4 | 0.00 | 0.00 | 0.00 | 39 | 1005.1 |
| 20260505205829 | 81 | 282 | 3.5 | 6.1 | 0.00 | 0.00 | 0.00 | 39 | 1005.2 |
| 20260505205328 | 81 | 284 | 3.5 | 10.4 | 0.00 | 0.00 | 0.00 | 39 | 1005.3 |
| 20260505204824 | 81 | 256 | 6.1 | 10.4 | 0.00 | 0.00 | 0.00 | 38 | 1005.5 |
| 20260505204322 | 81 | 340 | 3.5 | 6.1 | 0.00 | 0.00 | 0.00 | 38 | 1005.4 |
| 20260505203819 | 81 | 301 | 6.1 | 8.7 | 0.00 | 0.00 | 0.00 | 37 | 1005.3 |
| 20260505203315 | 81 | 274 | 2.6 | 10.4 | 0.00 | 0.00 | 0.00 | 39 | 1005.4 |
| 20260505202812 | 80 | 281 | 5.2 | 13.0 | 0.00 | 0.00 | 0.00 | 38 | 1005.5 |
| 20260505202308 | 81 | 289 | 6.1 | 10.4 | 0.00 | 0.00 | 0.00 | 37 | 1005.5 |
| 20260505201805 | 81 | 239 | 5.2 | 8.7 | 0.00 | 0.00 | 0.00 | 37 | 1005.5 |
| 20260505201302 | 81 | 254 | 7.8 | 13.0 | 0.00 | 0.00 | 0.00 | 37 | 1005.4 |
| 20260505200800 | 81 | 260 | 11.3 | 16.5 | 0.00 | 0.00 | 0.00 | 37 | 1005.3 |
| 20260505200257 | 81 | 233 | 7.8 | 13.0 | 0.00 | 0.00 | 0.00 | 38 | 1005.2 |
| 20260505195752 | 82 | 272 | 4.3 | 8.7 | 0.00 | 0.00 | 0.00 | 37 | 1005.3 |
| 20260505195250 | 81 | 307 | 1.7 | 6.1 | 0.00 | 0.00 | 0.00 | 37 | 1005.3 |
| 20260505194747 | 82 | 255 | 7.8 | 10.4 | 0.00 | 0.00 | 0.00 | 36 | 1005.5 |
| 20260505194244 | 83 | 227 | 12.2 | 16.5 | 0.00 | 0.00 | 0.00 | 37 | 1005.4 |
| 20260505193739 | 82 | 336 | 4.3 | 10.4 | 0.00 | 0.00 | 0.00 | 41 | 1005.4 |
| 20260505193237 | 82 | 290 | 4.3 | 10.4 | 0.00 | 0.00 | 0.00 | 41 | 1005.2 |
| 20260505192735 | 82 | 296 | 5.2 | 16.5 | 0.00 | 0.00 | 0.00 | 40 | 1005.5 |
| 20260505192233 | 82 | 285 | 5.2 | 6.1 | 0.00 | 0.00 | 0.00 | 39 | 1005.4 |
| 20260505191731 | 83 | 224 | 18.2 | 29.5 | 0.00 | 0.00 | 0.00 | 37 | 1005.3 |
| 20260505191229 | 84 | 290 | 11.3 | 23.5 | 0.00 | 0.00 | 0.00 | 36 | 1005.4 |
| 20260505190725 | 83 | 218 | 19.1 | 29.5 | 0.00 | 0.00 | 0.00 | 37 | 1005.3 |
| 20260505190225 | 84 | 238 | 6.1 | 16.5 | 0.00 | 0.00 | 0.00 | 41 | 1005.4 |
| 20260505185721 | 85 | 11 | 7.8 | 14.8 | 0.00 | 0.00 | 0.00 | 40 | 1005.7 |
| 20260505185218 | 84 | 128 | 7.0 | 10.4 | 0.00 | 0.00 | 0.00 | 39 | 1005.5 |
| 20260505184714 | 84 | 227 | 11.3 | 29.5 | 0.00 | 0.00 | 0.00 | 36 | 1005.7 |
| 20260505184212 | 84 | 230 | 2.6 | 8.7 | 0.00 | 0.00 | 0.00 | 42 | 1005.9 |
| 20260505183708 | 83 | 332 | 8.7 | 13.0 | 0.00 | 0.00 | 0.00 | 42 | 1005.9 |
| 20260505183206 | 83 | 318 | 6.1 | 13.0 | 0.00 | 0.00 | 0.00 | 43 | 1005.8 |
| 20260505182701 | 84 | 293 | 7.0 | 14.8 | 0.00 | 0.00 | 0.00 | 41 | 1005.9 |
| 20260505182159 | 83 | 273 | 8.7 | 16.5 | 0.00 | 0.00 | 0.00 | 40 | 1005.9 |
| 20260505181655 | 82 | 325 | 10.4 | 14.8 | 0.00 | 0.00 | 0.00 | 42 | 1006.1 |
| 20260505181153 | 83 | 191 | 5.2 | 8.7 | 0.00 | 0.00 | 0.00 | 41 | 1006.3 |
| 20260505180649 | 82 | 296 | 6.1 | 16.5 | 0.00 | 0.00 | 0.00 | 41 | 1006.3 |
| 20260505180147 | 82 | 169 | 8.7 | 14.8 | 0.00 | 0.00 | 0.00 | 41 | 1006.4 |
| 20260505175642 | 81 | 304 | 13.0 | 16.5 | 0.00 | 0.00 | 0.00 | 41 | 1006.7 |
| 20260505175139 | 81 | 299 | 4.3 | 16.5 | 0.00 | 0.00 | 0.00 | 42 | 1006.6 |
| 20260505174636 | 81 | 291 | 7.0 | 13.0 | 0.00 | 0.00 | 0.00 | 42 | 1006.5 |
| 20260505174132 | 81 | 288 | 8.7 | 29.5 | 0.00 | 0.00 | 0.00 | 40 | 1006.6 |
| 20260505173623 | 81 | 210 | 12.2 | 23.5 | 0.00 | 0.00 | 0.00 | 43 | 1006.7 |
| 20260505173120 | 81 | 231 | 10.4 | 20.9 | 0.00 | 0.00 | 0.00 | 41 | 1006.6 |
| 20260505172618 | 80 | 294 | 6.1 | 14.8 | 0.00 | 0.00 | 0.00 | 44 | 1006.8 |
| 20260505172114 | 80 | 268 | 7.8 | 10.4 | 0.00 | 0.00 | 0.00 | 43 | 1006.6 |
| 20260505171609 | 80 | 256 | 6.1 | 16.5 | 0.00 | 0.00 | 0.00 | 44 | 1006.7 |
| 20260505171106 | 82 | 264 | 12.2 | 14.8 | 0.00 | 0.00 | 0.00 | 42 | 1006.7 |
| 20260505170603 | 82 | 273 | 7.0 | 16.5 | 0.00 | 0.00 | 0.00 | 41 | 1006.8 |
| 20260505170100 | 81 | 288 | 9.6 | 16.5 | 0.00 | 0.00 | 0.00 | 43 | 1007.0 |
| 20260505165554 | 81 | 226 | 12.2 | 23.5 | 0.00 | 0.00 | 0.00 | 44 | 1007.1 |
| 20260505165051 | 82 | 269 | 4.3 | 10.4 | 0.00 | 0.00 | 0.00 | 45 | 1006.9 |
| 20260505164547 | 80 | 246 | 8.7 | 14.8 | 0.00 | 0.00 | 0.00 | 43 | 1007.2 |
| 20260505164045 | 81 | 247 | 8.7 | 14.8 | 0.00 | 0.00 | 0.00 | 43 | 1007.0 |
| 20260505163543 | 80 | 272 | 7.0 | 14.8 | 0.00 | 0.00 | 0.00 | 44 | 1007.1 |
| 20260505163039 | 80 | 288 | 6.1 | 14.8 | 0.00 | 0.00 | 0.00 | 44 | 1007.4 |
| 20260505162538 | 80 | 270 | 8.7 | 19.1 | 0.00 | 0.00 | 0.00 | 45 | 1007.2 |
| 20260505162035 | 80 | 288 | 9.6 | 13.0 | 0.00 | 0.00 | 0.00 | 45 | 1007.6 |
| 20260505161532 | 79 | 238 | 7.0 | 14.8 | 0.00 | 0.00 | 0.00 | 45 | 1007.6 |
| 20260505161029 | 80 | 295 | 7.0 | 14.8 | 0.00 | 0.00 | 0.00 | 45 | 1007.6 |
| 20260505160527 | 79 | 273 | 16.5 | 25.2 | 0.00 | 0.00 | 0.00 | 44 | 1007.8 |
| 20260505153002 | 78 | 268 | 12.2 | 20.9 | 0.00 | 0.00 | 0.00 | 48 | 1008.2 |
| 20260505152455 | 78 | 273 | 6.1 | 14.8 | 0.00 | 0.00 | 0.00 | 50 | 1007.9 |
| 20260505151950 | 78 | 211 | 10.4 | 14.8 | 0.00 | 0.00 | 0.00 | 49 | 1008.2 |
| 20260505151445 | 77 | 236 | 7.8 | 10.4 | 0.00 | 0.00 | 0.00 | 49 | 1008.2 |
| 20260505150942 | 77 | 329 | 5.2 | 8.7 | 0.00 | 0.00 | 0.00 | 51 | 1008.2 |
| 20260505150434 | 76 | 230 | 11.3 | 14.8 | 0.00 | 0.00 | 0.00 | 50 | 1008.2 |
| 20260505140404 | 73 | 280 | 3.5 | 10.4 | 0.00 | 0.00 | 0.00 | 58 | 1008.1 |
| 20260505124817 | 67 | 268 | 2.6 | 4.3 | 0.00 | 0.00 | 0.00 | 64 | 1008.4 |
| 20260505124314 | 67 | 275 | 2.6 | 6.1 | 0.00 | 0.00 | 0.00 | 65 | 1008.6 |
| 20260505123810 | 66 | 330 | 1.7 | 4.3 | 0.00 | 0.00 | 0.00 | 66 | 1008.7 |
| 20260505123307 | 65 | 310 | 2.6 | 6.1 | 0.00 | 0.00 | 0.00 | 67 | 1008.6 |
| 20260505122803 | 65 | 273 | 3.5 | 6.1 | 0.00 | 0.00 | 0.00 | 69 | 1008.7 |
| 20260505122301 | 64 | 168 | 1.7 | 6.1 | 0.00 | 0.00 | 0.00 | 70 | 1008.7 |
| 20260505121757 | 64 | 300 | 4.3 | 6.1 | 0.00 | 0.00 | 0.00 | 71 | 1008.9 |
| 20260505121254 | 64 | 239 | 2.6 | 4.3 | 0.00 | 0.00 | 0.00 | 72 | 1008.8 |
| 20260505120750 | 64 | 202 | 3.5 | 6.1 | 0.00 | 0.00 | 0.00 | 71 | 1008.8 |
| 20260505120246 | 63 | 275 | 0.9 | 6.1 | 0.00 | 0.00 | 0.00 | 72 | 1008.8 |
| 20260505115744 | 62 | 270 | 3.5 | 4.3 | 0.00 | 0.00 | 0.00 | 73 | 1008.8 |
| 20260505115242 | 62 | 303 | 1.7 | 6.1 | 0.00 | 0.00 | 0.00 | 73 | 1008.6 |
| 20260505114740 | 62 | 151 | 3.5 | 8.7 | 0.00 | 0.00 | 0.00 | 73 | 1008.8 |
| 20260505114236 | 62 | 302 | 0.9 | 6.1 | 0.00 | 0.00 | 0.00 | 74 | 1008.6 |
| 20260505113733 | 62 | 321 | 0.9 | 4.3 | 0.00 | 0.00 | 0.00 | 74 | 1008.5 |
| 20260505113230 | 62 | 307 | 4.3 | 6.1 | 0.00 | 0.00 | 0.00 | 74 | 1008.4 |
| 20260505112726 | 61 | 240 | 0.0 | 6.1 | 0.00 | 0.00 | 0.00 | 74 | 1008.5 |
| 20260505112224 | 61 | 153 | 3.5 | 4.3 | 0.00 | 0.00 | 0.00 | 74 | 1008.5 |
| 20260505111723 | 61 | 294 | 1.7 | 4.3 | 0.00 | 0.00 | 0.00 | 74 | 1008.5 |
| 20260505111220 | 61 | 314 | 1.7 | 6.1 | 0.00 | 0.00 | 0.00 | 73 | 1008.4 |
| 20260505110715 | 61 | 290 | 3.5 | 4.3 | 0.00 | 0.00 | 0.00 | 73 | 1008.2 |
| 20260505110213 | 61 | 299 | 1.7 | 4.3 | 0.00 | 0.00 | 0.00 | 73 | 1008.4 |
| 20260505102148 | 60 | 303 | 1.7 | 4.3 | 0.00 | 0.00 | 0.00 | 73 | 1008.3 |
| 20260505101647 | 60 | 284 | 1.7 | 1.7 | 0.00 | 0.00 | 0.00 | 74 | 1008.1 |
| 20260505101143 | 60 | 309 | 1.7 | 4.3 | 0.00 | 0.00 | 0.00 | 73 | 1008.2 |
| 20260505100639 | 61 | 244 | 2.6 | 6.1 | 0.00 | 0.00 | 0.00 | 72 | 1007.9 |
| 20260505100137 | 61 | 300 | 3.5 | 6.1 | 0.00 | 0.00 | 0.00 | 72 | 1008.3 |
| 20260505095632 | 61 | 311 | 1.7 | 4.3 | 0.00 | 0.00 | 0.00 | 72 | 1008.1 |
| 20260505095130 | 61 | 302 | 2.6 | 6.1 | 0.00 | 0.00 | 0.00 | 72 | 1008.2 |
| 20260505094626 | 61 | 296 | 4.3 | 6.1 | 0.00 | 0.00 | 0.00 | 72 | 1007.7 |
| 20260505094122 | 60 | 293 | 1.7 | 1.7 | 0.00 | 0.00 | 0.00 | 73 | 1007.9 |
| 20260505093619 | 60 | 326 | 0.0 | 0.0 | 0.00 | 0.00 | 0.00 | 73 | 1007.8 |
| 20260505093116 | 60 | 312 | 2.6 | 6.1 | 0.00 | 0.00 | 0.00 | 72 | 1007.6 |
| 20260505092613 | 61 | 282 | 1.7 | 4.3 | 0.00 | 0.00 | 0.00 | 72 | 1007.8 |
| 20260505092112 | 61 | 314 | 1.7 | 6.1 | 0.00 | 0.00 | 0.00 | 72 | 1007.4 |
| 20260505091608 | 61 | 281 | 2.6 | 4.3 | 0.00 | 0.00 | 0.00 | 72 | 1007.5 |
| 20260505091106 | 61 | 313 | 1.7 | 8.7 | 0.00 | 0.00 | 0.00 | 71 | 1007.5 |
| 20260505090604 | 61 | 174 | 2.6 | 8.7 | 0.00 | 0.00 | 0.00 | 71 | 1007.4 |
| 20260505085559 | 61 | 271 | 0.0 | 1.7 | 0.00 | 0.00 | 0.00 | 72 | 1007.2 |
| 20260505085057 | 61 | 283 | 3.5 | 4.3 | 0.00 | 0.00 | 0.00 | 71 | 1007.5 |
| 20260505084555 | 61 | 289 | 1.7 | 4.3 | 0.00 | 0.00 | 0.00 | 71 | 1007.6 |
| 20260505084053 | 61 | 314 | 0.0 | 0.0 | 0.00 | 0.00 | 0.00 | 71 | 1007.7 |
| 20260505083549 | 61 | 311 | 1.7 | 4.3 | 0.00 | 0.00 | 0.00 | 71 | 1007.7 |
| 20260505083046 | 61 | 317 | 0.0 | 1.7 | 0.00 | 0.00 | 0.00 | 70 | 1007.6 |
| 20260505082542 | 61 | 305 | 1.7 | 4.3 | 0.00 | 0.00 | 0.00 | 70 | 1007.7 |
| 20260505082039 | 62 | 322 | 0.0 | 1.7 | 0.00 | 0.00 | 0.00 | 69 | 1007.4 |
| 20260505081535 | 61 | 311 | 0.0 | 4.3 | 0.00 | 0.00 | 0.00 | 69 | 1007.6 |
| 20260505081033 | 61 | 308 | 1.7 | 1.7 | 0.00 | 0.00 | 0.00 | 70 | 1007.5 |
| 20260505080529 | 61 | 304 | 0.0 | 1.7 | 0.00 | 0.00 | 0.00 | 70 | 1007.5 |
| 20260505080026 | 61 | 295 | 0.0 | 1.7 | 0.00 | 0.00 | 0.00 | 69 | 1007.2 |
| 20260505075522 | 62 | 292 | 0.0 | 4.3 | 0.00 | 0.00 | 0.00 | 68 | 1007.3 |
| 20260505075019 | 62 | 293 | 0.9 | 4.3 | 0.00 | 0.00 | 0.00 | 68 | 1007.3 |
| 20260505074516 | 62 | 278 | 0.0 | 1.7 | 0.00 | 0.00 | 0.00 | 68 | 1007.4 |
| 20260505074013 | 62 | 285 | 0.0 | 0.0 | 0.00 | 0.00 | 0.00 | 68 | 1007.3 |
| 20260505073510 | 62 | 275 | 2.6 | 4.3 | 0.00 | 0.00 | 0.00 | 68 | 1007.4 |
| 20260505073009 | 62 | 289 | 1.7 | 1.7 | 0.00 | 0.00 | 0.00 | 68 | 1007.1 |
| 20260505072504 | 62 | 315 | 0.0 | 1.7 | 0.00 | 0.00 | 0.00 | 67 | 1007.2 |
| 20260505072000 | 62 | 304 | 1.7 | 1.7 | 0.00 | 0.00 | 0.00 | 67 | 1007.0 |
| 20260505071456 | 62 | 322 | 1.7 | 1.7 | 0.00 | 0.00 | 0.00 | 67 | 1006.9 |
| 20260505070954 | 60 | 286 | 1.7 | 4.3 | 0.00 | 0.00 | 0.00 | 70 | 1007.2 |
| 20260505070450 | 61 | 297 | 0.0 | 0.0 | 0.00 | 0.00 | 0.00 | 69 | 1007.2 |
| 20260505065946 | 61 | 293 | 0.0 | 1.7 | 0.00 | 0.00 | 0.00 | 69 | 1007.1 |
| 20260505065443 | 61 | 293 | 0.0 | 1.7 | 0.00 | 0.00 | 0.00 | 68 | 1007.2 |
| 20260505064939 | 61 | 291 | 0.0 | 1.7 | 0.00 | 0.00 | 0.00 | 68 | 1007.2 |
| 20260505064436 | 61 | 185 | 0.9 | 1.7 | 0.00 | 0.00 | 0.00 | 68 | 1007.2 |
| 20260505063935 | 60 | 309 | 0.0 | 1.7 | 0.00 | 0.00 | 0.00 | 69 | 1007.2 |
| 20260505063431 | 61 | 309 | 0.0 | 0.0 | 0.00 | 0.00 | 0.00 | 68 | 1007.2 |
| 20260505062928 | 61 | 308 | 0.0 | 0.0 | 0.00 | 0.00 | 0.00 | 67 | 1007.1 |
| 20260505062425 | 61 | 308 | 0.0 | 0.0 | 0.00 | 0.00 | 0.00 | 67 | 1007.2 |
| 20260505061921 | 61 | 307 | 0.0 | 0.0 | 0.00 | 0.00 | 0.00 | 66 | 1007.4 |
| 20260505061420 | 61 | 311 | 0.0 | 0.0 | 0.00 | 0.00 | 0.00 | 66 | 1007.4 |
| 20260505060917 | 62 | 314 | 0.0 | 0.0 | 0.00 | 0.00 | 0.00 | 66 | 1007.5 |
| 20260505060414 | 62 | 315 | 0.0 | 0.0 | 0.00 | 0.00 | 0.00 | 65 | 1007.4 |